Location: Unspecified
(0.0000°N, 0.0000°E)
Time: 19:30:38
(UTC+00:00)

deb Briz - Pass Details

Date: 15 February 2026
Orbit: 1858 x 2172 km, 64.9° (Epoch: 11 March)

Event Time Altitude Azimuth Distance (km) Brightness Sun altitude
Rises 03:10:11 0° 173° (S) 5,466 ? -44.6°
Reaches altitude 10° 03:14:44 10° 158° (SSE) 4,516 ? -43.5°
Maximum altitude 03:23:11 22° 111° (ESE) 3,675 ? -41.5°
Drops below altitude 10° 03:31:47 10° 65° (ENE) 4,659 ? -39.4°
Sets 03:36:26 0° 52° (NE) 5,681 ? -38.3°
